Location: Newark
(44.9333°N, 0.5667°E)
Time: 09:32:23
(UTC+00:00)

UWE-3 - Pass Details

Date: 27 February 2020
Orbit: 585 x 683 km, 97.6° (Epoch: 07 April)

Event Time Altitude Azimuth Distance (km) Brightness Sun altitude
Rises 04:07:41 0° 32° (NNE) 3,051 ? -27.6°
Reaches altitude 10° 04:11:05 10° 58° (ENE) 2,134 ? -27.0°
Maximum altitude 04:13:27 14° 88° (E) 1,887 ? -26.6°
Drops below altitude 10° 04:15:47 10° 119° (ESE) 2,122 ? -26.2°
Sets 04:19:08 0° 145° (SE) 3,023 ? -25.6°
